Regional Weather Roundup
Issued by NWS

Home | Current Version | Previous Version | Text Only | Print | Product List | Glossary On
Versions: 1 2 3 4 5 6 7 8 9 10 11 12 13 14 15 16 17 18 19 20 21 22 23 24 25 26 27 28 29 30 31 32 33 34 35 36 37 38 39 40 41 42 43 44 45 46 47 48 49 50
000
ASUS44 KBMX 280710
RWRAL

ALABAMA REGIONAL WEATHER ROUNDUP
NATIONAL WEATHER SERVICE BIRMINGHAM AL
200 AM CDT FRI AUG 28 2015

NOTE: "FAIR" INDICATES FEW OR NO CLOUDS BELOW 12,000 FEET
WITH NO SIGNIFICANT WEATHER AND/OR OBSTRUCTIONS TO VISIBILITY.

THE REMARK "TC" DENOTES TEMPERATURE IN DEGREES CELSIUS.

ALZ001>011-014-016>018-020-280800-
NORTH ALABAMA

CITY           SKY/WX    TMP DP  RH WIND       PRES   REMARKS
MUSCLE SHOALS  CLEAR     63  58  83 CALM      30.06F
HUNTSVILLE     CLEAR     69  61  75 NE5       30.05S
DECATUR        CLEAR     65  62  90 NE3       30.05F
HALEYVILLE     FAIR      63  62  96 CALM      30.07F
GADSDEN        CLEAR     66  61  82 NW3       30.04R
$$

ALZ012-013-022-023-030>036-040>044-280800-
WEST CENTRAL ALABAMA

CITY           SKY/WX    TMP DP  RH WIND       PRES   REMARKS
TUSCALOOSA     CLEAR     68  65  90 CALM      30.00F
$$

ALZ015-024>027-033>036-040>044-280800-
CENTRAL ALABAMA

CITY           SKY/WX    TMP DP  RH WIND       PRES   REMARKS
BIRMINGHAM     CLEAR     73  65  75 CALM      30.04S
MONTGOMERY     CLEAR     72  66  81 E7        29.98S
SHELBY CO ARPT CLEAR     71  66  84 CALM      30.02R
MAXWELL AFB    CLEAR     75  68  77 NE5       29.97S
GREENVILLE     FAIR      72  65  78 E6        29.96F
$$

ALZ019-021-028-029-037-038-045>048-280800-
EAST CENTRAL ALABAMA

CITY           SKY/WX    TMP DP  RH WIND       PRES   REMARKS
ANNISTON       CLEAR     69  64  84 CALM      30.04S
ALEXANDER CITY CLEAR     74  69  84 E5        30.01S
AUBURN         CLEAR     73  66  78 E10       30.02F
$$

ALZ051>064-280800-
SOUTHWEST ALABAMA

CITY           SKY/WX    TMP DP  RH WIND       PRES   REMARKS
MOBILE         CLEAR     68  62  81 CALM      29.96F
BROOKLEY FIELD CLEAR     70  64  81 N6        29.96F
EVERGREEN      CLEAR     65  64  97 CALM      29.96F
$$

ALZ049-050-065>069-280800-
SOUTHEAST ALABAMA

CITY           SKY/WX    TMP DP  RH WIND       PRES   REMARKS
DOTHAN         CLEAR     73  66  78 NE6       30.00F
OZARK          CLEAR     71  64  78 NE8       29.95F
TROY           CLEAR     71  66  84 E5        29.98F
EUFAULA        FAIR      74  68  81 NE6       29.97F
$$


USA.gov is the U.S. government's official web portal to all federal, state and local government web resources and services.